• In Portugal
  • List of Countries
  • For 7 days
  • Water Temperature
  • Satellite Maps
  • Weather Map
  • Weather Widgets
  • user-avatar
    Login

    Hourly Weather Dziecmorowice

    Today, 17 July, Tuesday

    Time Temperature Precipitation Wind Pressure Humidity
    00:00 +16°C° 0.3 mm 1 mps 720 mmHg 85%
    01:00 +16°C° 0 mm 1 mps 720 mmHg 87%
    02:00 +16°C° 0.1 mm 2 mps 720 mmHg 88%
    03:00 +15°C° 0.1 mm 2 mps 719 mmHg 89%
    04:00 +15°C° 0.1 mm 2 mps 719 mmHg 90%
    05:00 +16°C° 0 mm 2 mps 719 mmHg 88%
    06:00 +17°C° 0 mm 3 mps 720 mmHg 86%
    07:00 +18°C° 0 mm 3 mps 720 mmHg 84%
    08:00 +18°C° 0.6 mm 4 mps 720 mmHg 83%
    09:00 +19°C° 0.6 mm 5 mps 720 mmHg 82%
    10:00 +20°C° 0.6 mm 5 mps 720 mmHg 81%
    11:00 +19°C° 0.8 mm 5 mps 720 mmHg 82%
    12:00 +19°C° 0.8 mm 5 mps 720 mmHg 82%
    13:00 +19°C° 0.8 mm 5 mps 720 mmHg 82%
    14:00 +19°C° 0.8 mm 5 mps 719 mmHg 83%
    15:00 +19°C° 0.8 mm 5 mps 719 mmHg 85%
    16:00 +19°C° 0.8 mm 5 mps 719 mmHg 86%
    17:00 +18°C° 0.8 mm 4 mps 719 mmHg 88%
    18:00 +18°C° 0.8 mm 4 mps 719 mmHg 90%
    19:00 +17°C° 0.8 mm 4 mps 719 mmHg 92%
    20:00 +17°C° 0.5 mm 4 mps 719 mmHg 93%
    21:00 +17°C° 0.5 mm 4 mps 719 mmHg 94%
    22:00 +17°C° 0.5 mm 3 mps 719 mmHg 95%
    23:00 +15°C° 0.1 mm 4 mps 719 mmHg 95%

    Tomorrow, 18 July, Wednesday

    Time Temperature Precipitation Wind Pressure Humidity
    00:00 +15°C° 0.1 mm 4 mps 719 mmHg 95%
    01:00 +15°C° 0.1 mm 4 mps 719 mmHg 95%
    02:00 +15°C° 0.1 mm 4 mps 719 mmHg 95%
    03:00 +15°C° 0.1 mm 4 mps 719 mmHg 95%
    04:00 +15°C° 0.1 mm 5 mps 719 mmHg 95%
    05:00 +15°C° 0.6 mm 5 mps 719 mmHg 94%
    06:00 +16°C° 0.6 mm 6 mps 719 mmHg 92%
    07:00 +16°C° 0.6 mm 6 mps 719 mmHg 91%
    08:00 +16°C° 2.1 mm 7 mps 719 mmHg 91%
    09:00 +16°C° 2.1 mm 7 mps 720 mmHg 91%
    10:00 +16°C° 2.1 mm 7 mps 720 mmHg 91%
    11:00 +16°C° 1.8 mm 7 mps 720 mmHg 92%
    12:00 +16°C° 1.8 mm 7 mps 720 mmHg 92%
    13:00 +16°C° 1.8 mm 7 mps 720 mmHg 92%
    14:00 +16°C° 1.3 mm 7 mps 720 mmHg 93%
    15:00 +16°C° 1.3 mm 6 mps 721 mmHg 93%
    16:00 +16°C° 1.3 mm 6 mps 721 mmHg 93%
    17:00 +16°C° 0.7 mm 5 mps 721 mmHg 93%
    18:00 +16°C° 0.7 mm 5 mps 721 mmHg 93%
    19:00 +17°C° 0.7 mm 4 mps 721 mmHg 93%
    20:00 +17°C° 0.2 mm 4 mps 722 mmHg 93%
    21:00 +17°C° 0.2 mm 4 mps 722 mmHg 94%
    22:00 +17°C° 0.2 mm 4 mps 722 mmHg 94%
    23:00 +17°C° 0.2 mm 4 mps 722 mmHg 94%

    Day after tomorrow, 19 July, Thursday

    Time Temperature Precipitation Wind Pressure Humidity
    00:00 +15°C° 0.2 mm 4 mps 722 mmHg 94%
    01:00 +15°C° 0.2 mm 4 mps 722 mmHg 95%
    02:00 +15°C° 0.3 mm 4 mps 722 mmHg 95%
    03:00 +15°C° 0.3 mm 4 mps 722 mmHg 95%
    04:00 +15°C° 0.3 mm 4 mps 722 mmHg 95%
    05:00 +15°C° 0.5 mm 4 mps 722 mmHg 95%
    06:00 +15°C° 0.5 mm 4 mps 723 mmHg 94%
    07:00 +15°C° 0.5 mm 4 mps 723 mmHg 94%
    08:00 +15°C° 1.4 mm 4 mps 723 mmHg 93%
    09:00 +17°C° 1.4 mm 4 mps 723 mmHg 92%
    10:00 +17°C° 1.4 mm 4 mps 723 mmHg 91%
    11:00 +17°C° 1.3 mm 4 mps 723 mmHg 91%
    12:00 +17°C° 1.3 mm 4 mps 723 mmHg 91%
    13:00 +17°C° 1.3 mm 4 mps 723 mmHg 91%
    14:00 +18°C° 0.5 mm 4 mps 723 mmHg 90%
    15:00 +18°C° 0.5 mm 4 mps 724 mmHg 90%
    16:00 +18°C° 0.5 mm 4 mps 724 mmHg 90%
    17:00 +18°C° 0.2 mm 3 mps 724 mmHg 91%
    18:00 +18°C° 0.2 mm 2 mps 724 mmHg 92%
    19:00 +18°C° 0.2 mm 2 mps 724 mmHg 93%
    20:00 +17°C° 0.2 mm 2 mps 724 mmHg 94%
    21:00 +16°C° 0.2 mm 2 mps 724 mmHg 95%
    22:00 +16°C° 0.2 mm 2 mps 724 mmHg 95%
    23:00 +15°C° 0.4 mm 2 mps 724 mmHg 95%

    20 July, Friday

    Time Temperature Precipitation Wind Pressure Humidity
    00:00 +15°C° 0.4 mm 2 mps 724 mmHg 94%
    01:00 +15°C° 0.4 mm 2 mps 724 mmHg 94%
    02:00 +14°C° 0.2 mm 2 mps 724 mmHg 93%
    03:00 +14°C° 0.2 mm 2 mps 724 mmHg 93%
    04:00 +13°C° 0.2 mm 2 mps 724 mmHg 92%
    05:00 +13°C° 0.1 mm 3 mps 724 mmHg 90%
    06:00 +14°C° 0.1 mm 3 mps 724 mmHg 88%
    07:00 +16°C° 0.1 mm 3 mps 724 mmHg 85%
    08:00 +17°C° 0 mm 3 mps 724 mmHg 81%
    09:00 +18°C° 0 mm 3 mps 724 mmHg 77%
    10:00 +19°C° 0 mm 3 mps 724 mmHg 73%
    11:00 +20°C° 0 mm 3 mps 724 mmHg 70%
    12:00 +21°C° 0 mm 3 mps 724 mmHg 68%
    13:00 +22°C° 0 mm 3 mps 724 mmHg 66%
    14:00 +22°C° 0 mm 3 mps 724 mmHg 65%
    15:00 +22°C° 0 mm 3 mps 724 mmHg 64%
    16:00 +22°C° 0 mm 3 mps 723 mmHg 63%
    17:00 +21°C° 0 mm 2 mps 723 mmHg 67%
    18:00 +20°C° 0 mm 2 mps 723 mmHg 72%
    19:00 +20°C° 0 mm 1 mps 723 mmHg 76%
    20:00 +19°C° 0 mm 1 mps 723 mmHg 78%
    21:00 +18°C° 0 mm 1 mps 723 mmHg 80%
    22:00 +16°C° 0 mm 1 mps 723 mmHg 81%
    23:00 +15°C° 0 mm 1 mps 722 mmHg 82%

    21 July, Saturday

    Time Temperature Precipitation Wind Pressure Humidity
    00:00 +15°C° 0 mm 1 mps 722 mmHg 83%
    01:00 +15°C° 0 mm 1 mps 722 mmHg 83%
    02:00 +15°C° 0 mm 1 mps 722 mmHg 85%
    03:00 +14°C° 0 mm 1 mps 722 mmHg 86%
    04:00 +14°C° 0 mm 1 mps 722 mmHg 88%
    05:00 +16°C° 0 mm 1 mps 722 mmHg 84%
    06:00 +18°C° 0 mm 1 mps 722 mmHg 80%
    07:00 +18°C° 0 mm 0 mps 722 mmHg 76%
    08:00 +21°C° 0 mm 1 mps 722 mmHg 70%
    09:00 +22°C° 0 mm 1 mps 722 mmHg 63%
    10:00 +24°C° 0 mm 2 mps 722 mmHg 57%
    11:00 +24°C° 0 mm 2 mps 722 mmHg 55%
    12:00 +25°C° 0 mm 2 mps 722 mmHg 53%
    13:00 +25°C° 0 mm 2 mps 722 mmHg 51%
    14:00 +25°C° 0 mm 2 mps 721 mmHg 51%
    15:00 +25°C° 0 mm 2 mps 721 mmHg 51%
    16:00 +25°C° 0 mm 2 mps 721 mmHg 51%
    17:00 +24°C° 0 mm 1 mps 721 mmHg 57%
    18:00 +23°C° 0 mm 1 mps 720 mmHg 63%
    19:00 +22°C° 0 mm 1 mps 720 mmHg 68%
    20:00 +20°C° 0 mm 1 mps 720 mmHg 71%
    21:00 +19°C° 0 mm 1 mps 720 mmHg 73%
    22:00 +18°C° 0 mm 1 mps 720 mmHg 75%
    23:00 +16°C° 0 mm 1 mps 720 mmHg 77%

    22 July, Sunday

    Time Temperature Precipitation Wind Pressure Humidity
    00:00 +16°C° 0 mm 1 mps 720 mmHg 79%
    01:00 +15°C° 0 mm 1 mps 720 mmHg 80%
    02:00 +15°C° 0 mm 1 mps 720 mmHg 82%
    03:00 +15°C° 0 mm 1 mps 720 mmHg 84%
    04:00 +14°C° 0 mm 1 mps 720 mmHg 86%
    05:00 +15°C° 0 mm 2 mps 721 mmHg 83%
    06:00 +17°C° 0 mm 2 mps 721 mmHg 80%
    07:00 +18°C° 0 mm 2 mps 722 mmHg 77%
    08:00 +19°C° 0 mm 3 mps 722 mmHg 72%
    09:00 +20°C° 0 mm 3 mps 722 mmHg 67%
    10:00 +21°C° 0 mm 4 mps 722 mmHg 62%
    11:00 +21°C° 0.1 mm 4 mps 722 mmHg 61%
    12:00 +21°C° 0.1 mm 4 mps 722 mmHg 60%
    13:00 +21°C° 0.1 mm 4 mps 722 mmHg 59%
    14:00 +22°C° 0 mm 4 mps 722 mmHg 58%
    15:00 +22°C° 0 mm 3 mps 722 mmHg 57%
    16:00 +22°C° 0 mm 3 mps 722 mmHg 55%
    17:00 +21°C° 0 mm 2 mps 722 mmHg 61%
    18:00 +20°C° 0 mm 2 mps 723 mmHg 66%
    19:00 +21°C° 0 mm 1 mps 723 mmHg 71%
    20:00 +19°C° 0 mm 1 mps 723 mmHg 73%
    21:00 +18°C° 0 mm 1 mps 723 mmHg 75%
    22:00 +16°C° 0 mm 2 mps 723 mmHg 77%
    23:00 +15°C° 0 mm 2 mps 723 mmHg 79%
    Show more